K1UTS Weather Reports


Display with metric or nautical units.
time (UTC)temp
F
wind
direction
speed
MPH
gust
MPH
rain 1hr
in
rain 24hr
in
rain mn
in
humidity
%
barometer
mb
20221204144505 39 337 0.0 5.0 0.00 0.26 0.00 55 1018.4
20221204143002 38 287 0.0 3.0 0.00 0.26 0.00 56 1018.4
20221204141501 38 331 0.0 3.0 0.00 0.26 0.00 57 1018.4
20221204140100 37 5 1.0 3.0 0.00 0.26 0.00 59 1018.4
20221204134606 36 150 0.0 2.0 0.00 0.26 0.00 63 1018.5
20221204133056 35 223 0.0 1.0 0.00 0.26 0.00 68 1018.3
20221204131556 34 221 0.0 2.0 0.00 0.26 0.00 70 1018.3
20221204130055 33 223 0.0 1.0 0.00 0.26 0.00 75 1018.4
20221204124552 32 223 0.0 2.0 0.00 0.26 0.00 77 1018.1
20221204123100 30 223 0.0 1.0 0.00 0.26 0.00 80 1017.7
20221204121552 30 223 0.0 1.0 0.00 0.26 0.00 79 1017.5
20221204120052 30 254 0.0 1.0 0.00 0.26 0.00 78 1017.5
20221204114543 30 254 0.0 1.0 0.00 0.26 0.00 78 1017.3
20221204113039 32 254 0.0 1.0 0.00 0.26 0.00 75 1017.1
20221204111535 32 254 0.0 2.0 0.00 0.26 0.00 74 1016.7
20221204110104 32 254 0.0 2.0 0.00 0.26 0.00 73 1016.6
20221204104531 32 254 0.0 2.0 0.00 0.26 0.00 72 1016.2
20221204103030 33 254 1.0 2.0 0.00 0.26 0.00 73 1016.2
20221204101530 32 225 0.0 2.0 0.00 0.26 0.00 75 1015.9
20221204100030 32 219 0.0 2.0 0.00 0.26 0.00 75 1015.7
20221204094524 32 224 0.0 3.0 0.00 0.26 0.00 77 1015.4
20221204093023 33 215 0.0 2.0 0.00 0.26 0.00 75 1015.3
20221204091521 33 193 0.0 2.0 0.00 0.26 0.00 74 1015.2
20221204090018 33 214 0.0 2.0 0.00 0.26 0.00 73 1015.3
20221204084521 34 231 1.0 2.0 0.00 0.26 0.00 71 1015.1
20221204083015 35 227 1.0 4.0 0.00 0.26 0.00 70 1015.2
20221204081517 35 240 0.0 2.0 0.00 0.26 0.00 71 1014.9
20221204080107 35 238 1.0 2.0 0.00 0.26 0.00 72 1015.0
20221204074504 35 238 0.0 2.0 0.00 0.26 0.00 71 1014.7
20221204073002 35 244 0.0 2.0 0.00 0.26 0.00 72 1014.6
20221204071600 35 271 1.0 3.0 0.00 0.26 0.00 74 1014.5
20221204070100 36 252 0.0 2.0 0.00 0.26 0.00 73 1014.3
20221204064554 36 157 0.0 3.0 0.00 0.26 0.00 74 1014.0
20221204063053 36 212 0.0 2.0 0.00 0.26 0.00 76 1013.6
20221204061551 36 213 0.0 2.0 0.00 0.26 0.00 77 1013.3
20221204060045 37 104 0.0 1.0 0.00 0.26 0.00 77 1013.1
20221204054543 37 69 0.0 3.0 0.00 0.26 0.00 77 1013.0
20221204053044 37 218 0.0 6.0 0.00 0.26 0.00 76 1012.5
20221204051548 37 148 0.0 2.0 0.00 0.26 0.00 77 1012.6
20221204050037 38 109 0.0 3.0 0.00 0.26 0.00 76 1012.7
20221204044535 38 61 1.0 3.0 0.00 0.26 0.26 76 1012.4
20221204043035 38 89 0.0 2.0 0.00 0.26 0.26 76 1012.6
20221204041537 38 53 0.0 2.0 0.00 0.26 0.26 77 1012.4
20221204040033 39 106 1.0 3.0 0.00 0.26 0.26 75 1012.3
20221204034536 39 209 0.0 4.0 0.00 0.26 0.26 75 1012.3
20221204033038 39 94 1.0 4.0 0.00 0.26 0.26 74 1012.1
20221204031532 40 214 0.0 3.0 0.00 0.26 0.26 73 1012.1
20221204030031 40 278 0.0 6.0 0.00 0.26 0.26 75 1012.0
20221204024534 41 230 0.0 3.0 0.00 0.26 0.26 75 1012.3
20221204023030 42 32 1.0 3.0 0.00 0.26 0.26 71 1012.0
20221204021535 43 138 2.0 9.0 0.00 0.26 0.26 72 1011.4
20221204020033 43 30 1.0 7.0 0.00 0.26 0.26 74 1011.0
20221204014531 45 69 1.0 7.0 0.00 0.26 0.26 80 1011.1
20221204013026 45 113 1.0 3.0 0.00 0.26 0.26 83 1010.8
20221204011528 46 94 1.0 4.0 0.01 0.26 0.26 84 1010.2
20221204010034 47 129 1.0 9.0 0.03 0.26 0.26 88 1010.2
20221204004525 47 107 1.0 4.0 0.03 0.26 0.26 90 1010.0
20221204003024 49 113 1.0 6.0 0.03 0.26 0.26 90 1009.4
20221204001526 52 183 2.0 6.0 0.02 0.25 0.25 92 1008.9
20221204000024 54 326 1.0 6.0 0.00 0.23 0.23 93 1007.9
20221203234522 54 303 1.0 7.0 0.00 0.23 0.23 94 1007.6
20221203233021 54 100 0.0 3.0 0.00 0.23 0.23 94 1007.4
20221203231519 54 219 1.0 4.0 0.00 0.23 0.23 94 1007.2
20221203230022 54 201 1.0 5.0 0.00 0.23 0.23 94 1007.4
20221203224521 54 217 1.0 4.0 0.00 0.23 0.23 94 1007.4
20221203223017 54 237 1.0 6.0 0.01 0.23 0.23 94 1007.5
20221203221518 54 215 1.0 5.0 0.02 0.23 0.23 94 1007.6
20221203220013 54 266 2.0 4.0 0.02 0.23 0.23 94 1007.7
20221203214513 54 215 3.0 5.0 0.02 0.23 0.23 94 1007.8
20221203213111 55 22 2.0 7.0 0.01 0.22 0.22 94 1008.0
20221203211511 55 238 1.0 9.0 0.00 0.21 0.21 94 1008.0
20221203210019 55 160 3.0 11.0 0.00 0.21 0.21 94 1007.9
20221203204511 55 167 2.0 10.0 0.01 0.21 0.21 94 1008.1
20221203203006 55 147 2.0 11.0 0.03 0.21 0.21 94 1008.3
20221203201509 55 188 4.0 12.0 0.05 0.21 0.21 93 1008.4
20221203200007 55 227 3.0 11.0 0.07 0.21 0.21 93 1008.7
20221203194605 55 171 5.0 10.0 0.08 0.20 0.20 93 1008.9
20221203193059 55 203 4.0 9.0 0.09 0.18 0.18 93 1009.0
20221203191559 55 196 2.0 9.0 0.09 0.16 0.16 93 1009.2
20221203190119 55 128 4.0 11.0 0.08 0.14 0.14 93 1009.3
20221203184555 55 161 3.0 12.0 0.08 0.12 0.12 93 1009.6
20221203183101 55 169 4.0 8.0 0.05 0.09 0.09 93 1009.8
20221203181557 55 153 2.0 16.0 0.04 0.07 0.07 92 1010.1
20221203180047 55 140 4.0 10.0 0.04 0.06 0.06 92 1010.6
20221203174547 55 215 4.0 8.0 0.03 0.04 0.04 91 1010.9
20221203173052 55 211 3.0 11.0 0.04 0.04 0.04 91 1011.4
20221203171541 54 111 5.0 12.0 0.03 0.03 0.03 91 1011.7
20221203170039 54 123 4.0 11.0 0.02 0.02 0.02 90 1012.2
20221203164542 55 167 3.0 10.0 0.01 0.01 0.01 87 1012.6
20221203163040 55 183 4.0 10.0 0.00 0.00 0.00 85 1013.1
20221203161534 55 171 5.0 11.0 0.00 0.00 0.00 83 1013.6
20221203160027 56 215 5.0 17.0 0.00 0.00 0.00 79 1014.1
20221203154525 56 159 4.0 14.0 0.00 0.00 0.00 78 1014.6
20221203153023 56 165 3.0 10.0 0.00 0.00 0.00 77 1015.1
20221203151525 56 169 6.0 17.0 0.00 0.00 0.00 78 1015.7
20221203150018 55 94 2.0 12.0 0.00 0.00 0.00 79 1016.1